This is the latest recevied weather packets stored in our database for station/object KE8WAY. If no packets are shown the sender has not sent any weather packets the latest 10 day(s).
| Time | Temp. | Humidity | Pressure | Rain* | Wind** | Luminosity | Snow |
|---|---|---|---|---|---|---|---|
| 1777681123 | 6.67° C | 83% | 1014.3 hPa | 0 mm | - | 3 W/m² | - |
| 1777680821 | 6.67° C | 85% | 1014.2 hPa | 0 mm | - | 7 W/m² | - |
| 1777680518 | 6.67° C | 81% | 1013.8 hPa | 0 mm | - | 9 W/m² | - |
| 1777680217 | 6.67° C | 80% | 1014.1 hPa | 0 mm | - | 8 W/m² | - |
| 1777679912 | 6.67° C | 81% | 1014 hPa | 0 mm | - | 3 W/m² | - |
| 1777679608 | 6.67° C | 85% | 1014.3 hPa | 0 mm | - | 1 W/m² | - |
| 1777679303 | 6.67° C | 82% | 1013.6 hPa | 0 mm | - | 7 W/m² | - |
| 1777679001 | 6.11° C | 85% | 1014 hPa | 0 mm | - | 23 W/m² | - |
| 1777678699 | 6.11° C | 84% | 1014 hPa | 0 mm | - | 37 W/m² | - |
| 1777678396 | 6.11° C | 81% | 1014 hPa | 1.78 mm | - | 40 W/m² | - |
| 1777678092 | 6.67° C | 77% | 1014 hPa | 4.83 mm | - | 46 W/m² | - |
| 1777677789 | 6.11° C | 79% | 1013.8 hPa | 4.32 mm | - | 37 W/m² | - |
| 1777677487 | 6.11° C | 82% | 1013.9 hPa | 6.1 mm | - | 8 W/m² | - |
| 1777677185 | 6.67° C | 78% | 1013.8 hPa | 3.05 mm | - | 6 W/m² | - |
| 1777676883 | 7.22° C | 79% | 1014 hPa | 0 mm | - | 5 W/m² | - |
| 1777676581 | 7.22° C | 78% | 1013.7 hPa | 0 mm | - | 7 W/m² | - |
| 1777676278 | 7.22° C | 72% | 1013.8 hPa | 0 mm | - | 9 W/m² | - |
| 1777675976 | 7.22° C | 70% | 1013.9 hPa | 1.78 mm | - | 26 W/m² | - |
| 1777675672 | 7.78° C | 72% | 1014.2 hPa | 1.78 mm | - | 32 W/m² | - |
| 1777675369 | 8.33° C | 75% | 1014 hPa | 0 mm | - | 23 W/m² | - |
| 1777675065 | 8.33° C | 75% | 1014.2 hPa | 0 mm | - | 20 W/m² | - |
| 1777674762 | 8.33° C | 73% | 1014.2 hPa | 0 mm | - | 24 W/m² | - |
| 1777674458 | 8.33° C | 73% | 1014 hPa | 0 mm | - | 32 W/m² | - |
| 1777674156 | 8.33° C | 73% | 1014 hPa | 0 mm | - | 50 W/m² | - |
| 1777673852 | 8.33° C | 71% | 1013.9 hPa | 0 mm | - | 68 W/m² | - |
* Rain latest hour (hover to see other rain measurements)
** Current wind speed in m/s (hover to see current wind gust speed)